Tracking 21612 objects as of 20-Oct-2020
HD Live streaming from Space Station
objects crossing your sky now

BREEZE-M R/B

Track BREEZE-M R/B now!


NORAD ID: 39123
Int'l Code: 2013-012B
Perigee: 5,338.1 km
Apogee: 34,200.7 km
Inclination: 18.8 °
Period: 701.0 minutes
Semi major axis: 26140 km
RCS: 0.6198 m2 (medium)
Launch date: March 26, 2013
Source: Commonwealth of Independent States (former USSR) (CIS)
Launch site: TYURATAM MISSILE AND SPACE COMPLEX (TTMTR)

Note: This is a ROCKET BODY
aabbcc
Your satellite tracking list
Your tracking list is empty




NASA's NSSDC Master Catalog

Two Line Element Set (TLE):
1 39123U 13012B   20293.59749394 -.00000182 +00000-0 +00000-0 0  9993
2 39123 018.7613 080.2537 5520685 015.1209 356.2208 02.05415815056783
Source of the keplerian elements: AFSPC